Find Local Weather

World > North America > United States > Florida

Fort Pierce, Florida Regional Weather

Lat: 27.44N, Lon: 80.32W
Wx Zone: FLZ059
Feedback
Expires:201901170900;;480030
ASUS42 KTBW 170817
RWRFL 
FLORIDA REGIONAL WEATHER ROUNDUP
NATIONAL WEATHER SERVICE TAMPA BAY RUSKIN FL
300 AM EST THU JAN 17 2019

NOTE: "FAIR" INDICATES FEW OR NO CLOUDS BELOW 12,000 FEET WITH NO
SIGNIFICANT WEATHER AND/OR OBSTRUCTIONS TO VISIBILITY.


FLZ041-047-054-059-064-141-147-170900-
EAST CENTRAL FLORIDA
  
CITY           SKY/WX    TMP DP  RH WIND       PRES   REMARKS
DAYTONA BEACH  FAIR      42  42 100 CALM      30.24F                  
DELAND         FAIR      37  37 100 CALM      30.23F                  
JFK SPACE CTR  FAIR      47  44  89 N5        30.20F                  
CAPE CANAVERAL FAIR      54  46  76 N7        30.20F                  
PATRICK AFB    FAIR      55  51  84 N8        30.20F                  
MELBOURNE      FAIR      46  43  89 NW5       30.21F WCI  44          
VERO BEACH     FAIR      47  45  93 NW5       30.20S WCI  45          
FT PIERCE      FAIR      48  45  89 NW6       30.19F                  
STUART         FAIR      52  46  82 NW5       30.20F                  

STATION/POSITION SKY/WX   TEMP    WIND        PRES    WAVE   SWELL
                          AIR SEA DIR/SP/G            HT/PER HT/PER
                          (F)     (DEG/KT/KT) (MB)    (FT/S) (FT/S)
28.5N   80.2W              67      20/ 12/ 16 1022.7F   4/11   3/11
28.9N   78.5W              68 76   10/  6/ 10 1023.2R
TRIDENT PIER               55 67  330/  4/  6 1024.4F
28.4N   80.5W                 66                N/A     3/13   2/13
27.5N   80.2W                 69                N/A     5/13   2/13

$$

SKY/WX - Weather  TMP - Temperature  DP - Dew Point  RH - Relative Humidity
WIND - Wind Direction/Speed PRES - Barometric Pressure